Location: Ethel Rock
(53.4667°N, 4.5667°W)
Time: 05:19:21
(UTC+00:00)

Cosmos 1356 Rocket - Pass Details

Date: 24 October 2020
Orbit: 542 x 599 km, 81.2° (Epoch: 25 November)

Event Time Altitude Azimuth Distance (km) Brightness Sun altitude
Rises 04:52:00 0° 342° (NNW) 2,856 6.9 -20.0°
Reaches altitude 10° 04:54:17 10° 336° (NNW) 1,944 5.9 -19.7°
Enters shadow 04:54:19 10° 336° (NNW) 1,934 5.9 -19.7°
Exits shadow 04:59:34 35° 222° (SW) 962 4.1 -18.9°
Drops below altitude 10° 05:02:24 10° 192° (SSW) 1,904 5.9 -18.5°
Sets 05:04:38 0° 186° (S) 2,790 6.8 -18.1°
